EW1198 Weather Reports


time (UTC)temp
C
wind
direction
speed
KPH
gust
KPH
rain 1hr
cm
rain 24hr
cm
rain mn
cm
humidity
%
barometer
mb
20260508214303 19 298 0.0 0.0 0.00 0.00 0.00 47 1007.2
20260508213804 19 281 0.0 0.0 0.00 0.00 0.00 47 1007.2
20260508213304 19 358 0.0 0.0 0.00 0.00 0.00 47 1007.2
20260508212804 19 0 0.0 0.0 0.00 0.00 0.00 47 1007.3
20260508212306 19 0 0.0 0.0 0.00 0.00 0.00 47 1007.3
20260508211804 19 0 0.0 0.0 0.00 0.00 0.00 47 1007.3
20260508211305 19 0 0.0 0.0 0.00 0.00 0.00 46 1007.3
20260508210803 19 319 0.0 0.0 0.00 0.00 0.00 46 1007.5
20260508210304 19 317 0.0 0.0 0.00 0.00 0.00 45 1007.6
20260508205805 19 345 0.0 0.0 0.00 0.00 0.00 45 1007.7
20260508205306 19 306 0.0 0.0 0.00 0.00 0.00 45 1007.7
20260508204804 19 358 0.0 0.0 0.00 0.00 0.00 45 1007.9
20260508204304 19 248 0.0 0.0 0.00 0.00 0.00 44 1007.8
20260508203804 19 315 0.0 0.0 0.00 0.00 0.00 44 1007.9
20260508203304 19 355 0.0 0.0 0.00 0.00 0.00 43 1007.8
20260508202804 19 0 0.0 0.0 0.00 0.00 0.00 44 1007.9
20260508201804 20 306 0.0 0.0 0.00 0.00 0.00 43 1008.1
20260508201304 20 358 0.0 0.0 0.00 0.00 0.00 43 1008.1
20260508200805 20 346 0.0 0.0 0.00 0.00 0.00 42 1008.1
20260508200304 20 318 0.0 0.0 0.00 0.00 0.00 41 1008.2
20260508195804 20 354 0.0 0.0 0.00 0.00 0.00 41 1008.2
20260508195306 20 341 0.0 0.0 0.00 0.00 0.00 40 1008.2
20260508194303 20 296 0.0 4.8 0.00 0.00 0.00 39 1008.3
20260508193804 20 348 0.0 0.0 0.00 0.00 0.00 39 1008.3
20260508193303 20 319 0.0 0.0 0.00 0.00 0.00 40 1008.3
20260508192306 21 341 0.0 0.0 0.00 0.00 0.00 40 1008.6
20260508191804 20 329 0.0 0.0 0.00 0.00 0.00 39 1008.6
20260508191304 20 318 0.0 0.0 0.00 0.00 0.00 39 1008.8
20260508190803 21 347 1.6 16.1 0.00 0.00 0.00 39 1008.8
20260508190304 20 344 0.0 0.0 0.00 0.00 0.00 41 1009.0
20260508185804 20 293 0.0 0.0 0.00 0.00 0.00 40 1009.2
20260508185306 20 284 0.0 1.6 0.00 0.00 0.00 41 1009.2
20260508184304 20 265 0.0 9.7 0.00 0.00 0.00 41 1009.3
20260508183804 20 305 1.6 8.0 0.00 0.00 0.00 41 1009.3
20260508182803 20 340 0.0 1.6 0.00 0.00 0.00 39 1009.4
20260508182306 21 329 0.0 0.0 0.00 0.00 0.00 42 1009.4
20260508181803 20 332 0.0 0.0 0.00 0.00 0.00 42 1009.5
20260508181304 20 348 0.0 0.0 0.00 0.00 0.00 42 1009.4
20260508180804 20 267 0.0 3.2 0.00 0.00 0.00 44 1009.5
20260508180303 19 228 0.0 0.0 0.00 0.00 0.00 44 1009.7
20260508175804 19 349 0.0 0.0 0.00 0.00 0.00 45 1009.8
20260508175306 19 340 0.0 0.0 0.00 0.00 0.00 43 1009.9
20260508174303 19 343 0.0 0.0 0.00 0.00 0.00 43 1009.8
20260508173805 19 321 0.0 4.8 0.00 0.00 0.00 43 1009.9
20260508172804 20 332 0.0 4.8 0.00 0.00 0.00 43 1010.1
20260508172307 20 325 0.0 4.8 0.00 0.00 0.00 42 1010.1
20260508171303 20 357 0.0 3.2 0.00 0.00 0.00 42 1010.2
20260508170304 21 285 0.0 3.2 0.00 0.00 0.00 41 1010.4
20260508165804 20 321 1.6 9.7 0.00 0.00 0.00 41 1010.5
20260508165306 20 344 1.6 9.7 0.00 0.00 0.00 42 1010.6
20260508164304 19 299 0.0 4.8 0.00 0.00 0.00 42 1010.8
20260508163804 19 341 1.6 4.8 0.00 0.00 0.00 43 1010.8
20260508163304 20 293 0.0 4.8 0.00 0.00 0.00 43 1010.9
20260508162804 20 341 0.0 4.8 0.00 0.00 0.00 43 1011.1
20260508162306 19 332 3.2 24.1 0.00 0.00 0.00 43 1011.0
20260508161803 19 347 0.0 9.7 0.00 0.00 0.00 44 1011.1
20260508161304 18 337 0.0 4.8 0.00 0.00 0.00 44 1011.0
20260508160804 18 202 0.0 4.8 0.00 0.00 0.00 45 1011.2
20260508160304 18 229 0.0 8.0 0.00 0.00 0.00 46 1011.2
20260508155306 18 351 0.0 9.7 0.00 0.00 0.00 45 1011.2
20260508154303 17 264 0.0 4.8 0.00 0.00 0.00 48 1011.3
20260508153804 17 331 0.0 4.8 0.00 0.00 0.00 48 1011.4
20260508153303 18 298 0.0 0.0 0.00 0.00 0.00 49 1011.4
20260508152803 17 231 0.0 0.0 0.00 0.00 0.00 48 1011.4
20260508152306 17 339 0.0 3.2 0.00 0.00 0.00 48 1011.4
20260508151803 17 162 1.6 4.8 0.00 0.00 0.00 50 1011.4
20260508151304 17 237 0.0 4.8 0.00 0.00 0.00 49 1011.5
20260508150803 17 323 0.0 3.2 0.00 0.00 0.00 50 1011.7
20260508145804 16 225 0.0 0.0 0.00 0.00 0.00 50 1011.4
20260508145306 16 247 0.0 4.8 0.00 0.00 0.00 49 1011.6
20260508144803 16 357 0.0 3.2 0.00 0.00 0.00 50 1011.6
20260508144304 16 287 1.6 4.8 0.00 0.00 0.00 49 1011.8
20260508143804 16 322 0.0 3.2 0.00 0.00 0.00 49 1011.8
20260508143304 16 341 1.6 4.8 0.00 0.00 0.00 49 1011.8
20260508142804 16 307 0.0 4.8 0.00 0.00 0.00 50 1011.8
20260508142306 16 194 0.0 4.8 0.00 0.00 0.00 50 1011.8
20260508141303 16 238 0.0 3.2 0.00 0.00 0.00 51 1012.1
20260508140805 15 355 0.0 4.8 0.00 0.00 0.00 52 1012.1
20260508140304 15 350 0.0 8.0 0.00 0.00 0.00 52 1012.1
20260508135803 15 228 1.6 4.8 0.00 0.00 0.00 52 1012.1
20260508135306 15 301 0.0 4.8 0.00 0.00 0.00 54 1012.2
20260508134304 15 354 0.0 4.8 0.00 0.00 0.00 53 1012.1
20260508133304 14 347 0.0 1.6 0.00 0.00 0.00 53 1012.1
20260508132803 14 354 0.0 1.6 0.00 0.00 0.00 55 1012.0
20260508132306 13 317 0.0 4.8 0.00 0.00 0.00 56 1012.0
20260508131804 13 357 0.0 1.6 0.00 0.00 0.00 57 1012.1
20260508131304 13 326 0.0 1.6 0.00 0.00 0.00 58 1012.0
20260508130804 13 271 0.0 3.2 0.00 0.00 0.00 57 1012.0
20260508130304 13 353 0.0 1.6 0.00 0.00 0.00 58 1012.1
20260508125306 13 217 0.0 1.6 0.00 0.00 0.00 59 1012.1
20260508124303 12 0 0.0 3.2 0.00 0.00 0.00 60 1012.1
20260508123303 12 139 1.6 4.8 0.00 0.00 0.00 62 1012.1
20260508122804 11 0 0.0 1.6 0.00 0.00 0.00 62 1012.1
20260508122307 11 3 0.0 3.2 0.00 0.00 0.00 63 1012.0
20260508121804 11 357 0.0 4.8 0.00 0.00 0.00 64 1012.1
20260508121303 11 154 1.6 4.8 0.00 0.00 0.00 63 1012.1
20260508120804 11 358 0.0 0.0 0.00 0.00 0.00 64 1012.1
20260508115804 11 29 0.0 1.6 0.00 0.00 0.00 65 1012.0
20260508115306 10 216 0.0 1.6 0.00 0.00 0.00 66 1011.9
20260508114803 10 112 0.0 1.6 0.00 0.00 0.00 66 1011.9
20260508114303 10 0 0.0 3.2 0.00 0.00 0.00 67 1011.9
20260508113804 10 150 0.0 1.6 0.00 0.00 0.00 66 1011.8
20260508113304 10 316 0.0 1.6 0.00 0.00 0.00 67 1011.8
20260508112803 10 216 0.0 1.6 0.00 0.00 0.00 67 1011.7
20260508112307 10 172 0.0 1.6 0.00 0.00 0.00 67 1011.6
20260508111804 10 133 0.0 3.2 0.00 0.00 0.00 68 1011.6
20260508111304 10 2 0.0 1.6 0.00 0.00 0.00 69 1011.6
20260508110804 9 357 0.0 1.6 0.00 0.00 0.00 70 1011.6
20260508110304 9 226 0.0 1.6 0.00 0.00 0.00 70 1011.5
20260508105804 9 0 0.0 0.0 0.00 0.00 0.00 70 1011.5
20260508105306 9 0 0.0 0.0 0.00 0.00 0.00 70 1011.4
20260508104804 9 0 0.0 0.0 0.00 0.00 0.00 70 1011.4
20260508104303 9 0 0.0 0.0 0.00 0.00 0.00 71 1011.4
20260508103804 9 0 0.0 1.6 0.00 0.00 0.00 71 1011.5
20260508103304 9 192 0.0 0.0 0.00 0.00 0.00 71 1011.4
20260508102804 8 185 0.0 1.6 0.00 0.00 0.00 71 1011.4
20260508101804 8 357 0.0 1.6 0.00 0.00 0.00 72 1011.3
20260508101303 8 138 0.0 0.0 0.00 0.00 0.00 73 1011.3
20260508100304 8 139 0.0 1.6 0.00 0.00 0.00 73 1011.4
20260508095803 8 0 0.0 0.0 0.00 0.00 0.00 73 1011.4
20260508095306 8 189 0.0 1.6 0.00 0.00 0.00 73 1011.4
20260508094804 8 173 0.0 0.0 0.00 0.00 0.00 73 1011.5
20260508094304 8 175 0.0 0.0 0.00 0.00 0.00 73 1011.5
20260508093804 8 175 0.0 0.0 0.00 0.00 0.00 72 1011.5
20260508093304 8 175 0.0 0.0 0.00 0.00 0.00 72 1011.6
20260508092804 8 215 0.0 0.0 0.00 0.00 0.00 72 1011.6
20260508092312 8 165 0.0 0.0 0.00 0.00 0.00 71 1011.6
20260508091803 8 165 0.0 0.0 0.00 0.00 0.00 71 1011.5
20260508091304 8 154 0.0 0.0 0.00 0.00 0.00 71 1011.6
20260508090803 8 0 0.0 0.0 0.00 0.00 0.00 70 1011.6
20260508090304 8 197 0.0 0.0 0.00 0.00 0.00 70 1011.5
20260508085804 8 218 0.0 1.6 0.00 0.00 0.00 70 1011.6
20260508085307 8 350 0.0 0.0 0.00 0.00 0.00 70 1011.5
20260508084804 8 355 0.0 1.6 0.00 0.00 0.00 69 1011.5
20260508084304 8 143 0.0 0.0 0.00 0.00 0.00 69 1011.5
20260508083804 8 165 0.0 0.0 0.00 0.00 0.00 68 1011.6
20260508083303 8 178 0.0 0.0 0.00 0.00 0.00 68 1011.6
20260508082804 8 178 0.0 1.6 0.00 0.00 0.00 68 1011.6
20260508082306 8 192 0.0 0.0 0.00 0.00 0.00 68 1011.6
20260508081803 8 194 0.0 0.0 0.00 0.00 0.00 68 1011.5
20260508081304 9 192 0.0 0.0 0.00 0.00 0.00 67 1011.6
20260508080804 9 0 0.0 1.6 0.00 0.00 0.00 67 1011.6
20260508080303 9 0 0.0 0.0 0.00 0.00 0.00 67 1011.5
20260508075804 9 0 0.0 3.2 0.00 0.00 0.00 67 1011.5
20260508075308 9 0 0.0 1.6 0.00 0.00 0.00 66 1011.6
20260508074803 9 354 0.0 1.6 0.00 0.00 0.00 66 1011.6
20260508073804 9 217 0.0 0.0 0.00 0.00 0.00 66 1011.5
20260508073304 9 217 0.0 1.6 0.00 0.00 0.00 65 1011.5
20260508072804 9 220 0.0 0.0 0.00 0.00 0.00 65 1011.5
20260508072307 9 0 0.0 0.0 0.00 0.00 0.00 65 1011.5
20260508071804 9 233 0.0 0.0 0.00 0.00 0.00 65 1011.8
20260508071303 9 233 0.0 0.0 0.00 0.00 0.00 65 1011.8
20260508070804 9 248 0.0 0.0 0.00 0.00 0.00 65 1011.9
20260508065803 9 0 0.0 0.0 0.00 0.00 0.00 64 1011.8
20260508065307 9 222 0.0 1.6 0.00 0.00 0.00 64 1011.8
20260508064804 9 235 0.0 0.0 0.00 0.00 0.00 63 1011.9
20260508064304 10 236 0.0 0.0 0.00 0.00 0.00 63 1012.0
20260508063304 10 212 0.0 0.0 0.00 0.00 0.00 63 1012.0
20260508061804 10 0 0.0 0.0 0.00 0.00 0.00 62 1012.0
20260508061303 10 263 0.0 1.6 0.00 0.00 0.00 62 1011.9
20260508060803 10 248 0.0 1.6 0.00 0.00 0.00 62 1011.9
20260508055805 10 217 0.0 1.6 0.00 0.00 0.00 61 1011.9
20260508055306 10 172 0.0 1.6 0.00 0.00 0.00 61 1012.0
20260508054804 10 357 0.0 1.6 0.00 0.00 0.00 61 1011.9
20260508053304 10 267 0.0 3.2 0.00 0.00 0.00 60 1012.0
20260508052804 10 0 0.0 1.6 0.00 0.00 0.00 61 1012.1
20260508052306 10 328 0.0 1.6 0.00 0.00 0.00 61 1012.0
20260508051803 10 339 0.0 3.2 0.00 0.00 0.00 61 1011.9
20260508051304 11 349 0.0 1.6 0.00 0.00 0.00 61 1012.0
20260508050804 11 164 0.0 1.6 0.00 0.00 0.00 61 1012.1
20260508050304 11 356 0.0 1.6 0.00 0.00 0.00 60 1012.1
20260508045804 11 344 0.0 1.6 0.00 0.00 0.00 60 1012.1
20260508045306 11 239 0.0 1.6 0.00 0.00 0.00 60 1012.0
20260508044804 11 184 0.0 1.6 0.00 0.00 0.00 60 1012.0
20260508043804 11 349 0.0 1.6 0.00 0.00 0.00 59 1012.0
20260508043303 11 357 0.0 0.0 0.00 0.00 0.00 58 1011.8
20260508042804 11 306 0.0 0.0 0.00 0.00 0.00 58 1011.8
20260508042307 11 211 0.0 0.0 0.00 0.00 0.00 58 1012.0
20260508041803 11 211 0.0 0.0 0.00 0.00 0.00 57 1012.0
20260508041304 11 230 0.0 0.0 0.00 0.00 0.00 57 1012.0
20260508040804 11 0 0.0 0.0 0.00 0.00 0.00 57 1012.0
20260508040304 11 234 0.0 1.6 0.00 0.00 0.00 57 1011.9
20260508035803 11 178 0.0 0.0 0.00 0.00 0.00 56 1011.8
20260508035306 11 187 0.0 1.6 0.00 0.00 0.00 56 1011.9
20260508034804 12 0 0.0 1.6 0.00 0.00 0.00 56 1012.0
20260508034304 12 356 0.0 0.0 0.00 0.00 0.00 55 1012.0
20260508033803 12 240 0.0 3.2 0.00 0.00 0.00 55 1011.9
20260508032804 12 238 0.0 1.6 0.00 0.00 0.00 55 1012.0
20260508031804 12 233 0.0 1.6 0.00 0.00 0.00 54 1012.0
20260508031304 12 224 0.0 0.0 0.00 0.00 0.00 54 1012.0
20260508030804 12 343 0.0 0.0 0.00 0.00 0.00 54 1012.0
20260508025306 12 0 0.0 1.6 0.00 0.00 0.00 53 1011.8
20260508024805 12 302 0.0 0.0 0.00 0.00 0.00 54 1011.7
20260508024304 12 324 0.0 0.0 0.00 0.00 0.00 53 1011.7
20260508023804 12 351 0.0 0.0 0.00 0.00 0.00 53 1011.7
20260508023304 12 211 0.0 0.0 0.00 0.00 0.00 53 1011.6
20260508022804 12 0 0.0 0.0 0.00 0.00 0.00 52 1011.7
20260508021805 12 0 0.0 0.0 0.00 0.00 0.00 50 1011.7
20260508021304 12 209 0.0 0.0 0.00 0.00 0.00 50 1011.6
20260508020304 13 167 0.0 0.0 0.00 0.00 0.00 50 1011.6
20260508015804 13 169 0.0 0.0 0.00 0.00 0.00 50 1011.6
20260508015306 13 189 0.0 0.0 0.00 0.00 0.00 49 1011.7
20260508014303 13 352 0.0 0.0 0.00 0.00 0.00 48 1011.7
20260508013803 13 356 0.0 0.0 0.00 0.00 0.00 48 1011.6
20260508013304 13 277 0.0 0.0 0.00 0.00 0.00 48 1011.7
20260508012803 13 212 0.0 0.0 0.00 0.00 0.00 46 1011.7
20260508012307 13 0 0.0 0.0 0.00 0.00 0.00 46 1011.6
20260508011804 13 218 0.0 0.0 0.00 0.00 0.00 46 1011.7
20260508010804 13 0 0.0 0.0 0.00 0.00 0.00 45 1011.6
20260508010303 13 0 0.0 0.0 0.00 0.00 0.00 44 1011.6
20260508005803 13 0 0.0 0.0 0.00 0.00 0.00 44 1011.7
20260508005306 13 0 0.0 0.0 0.00 0.00 0.00 44 1011.7
20260508004805 14 0 0.0 0.0 0.00 0.00 0.00 43 1011.7
20260508004303 14 0 0.0 0.0 0.00 0.00 0.00 42 1011.7
20260508003804 14 0 0.0 0.0 0.00 0.00 0.00 42 1011.7
20260508003304 14 0 0.0 0.0 0.00 0.00 0.00 41 1011.7
20260508002803 14 0 0.0 0.0 0.00 0.00 0.00 41 1011.7
20260508001804 14 0 0.0 0.0 0.00 0.00 0.00 40 1011.4
20260508001304 15 0 0.0 0.0 0.00 0.00 0.00 40 1011.5
20260508000804 15 242 0.0 0.0 0.00 0.00 0.00 39 1011.5
20260508000305 15 355 0.0 0.0 0.00 0.00 0.00 39 1011.4
20260507235804 15 0 0.0 0.0 0.00 0.00 0.00 39 1011.4
20260507235306 15 317 0.0 0.0 0.00 0.00 0.00 38 1011.4
20260507234804 15 0 0.0 0.0 0.00 0.00 0.00 38 1011.4
20260507233804 15 349 0.0 0.0 0.00 0.00 0.00 37 1011.4
20260507233304 15 351 0.0 0.0 0.00 0.00 0.00 37 1011.4
20260507232804 15 328 0.0 0.0 0.00 0.00 0.00 37 1011.4
20260507232306 15 355 0.0 0.0 0.00 0.00 0.00 37 1011.4
20260507231804 15 323 0.0 0.0 0.00 0.00 0.00 37 1011.5
20260507231303 16 0 0.0 0.0 0.00 0.00 0.00 36 1011.5
20260507230804 16 357 0.0 0.0 0.00 0.00 0.00 37 1011.5
20260507230304 15 0 0.0 0.0 0.00 0.00 0.00 36 1011.5
20260507225803 16 356 0.0 0.0 0.00 0.00 0.00 35 1011.5
20260507225306 16 336 0.0 0.0 0.00 0.00 0.00 36 1011.4
20260507224804 16 354 0.0 0.0 0.00 0.00 0.00 36 1011.4
20260507224303 16 171 0.0 0.0 0.00 0.00 0.00 35 1011.4
20260507223803 16 349 0.0 0.0 0.00 0.00 0.00 35 1011.4
20260507223304 16 347 0.0 0.0 0.00 0.00 0.00 36 1011.3
20260507222804 16 0 0.0 0.0 0.00 0.00 0.00 35 1011.5
20260507222306 16 244 0.0 0.0 0.00 0.00 0.00 35 1011.5
20260507221803 16 355 0.0 0.0 0.00 0.00 0.00 34 1011.6
20260507221304 16 332 0.0 0.0 0.00 0.00 0.00 34 1011.5
20260507220804 16 344 0.0 0.0 0.00 0.00 0.00 33 1011.6
20260507220304 16 339 0.0 0.0 0.00 0.00 0.00 33 1011.6
20260507215804 16 335 0.0 0.0 0.00 0.00 0.00 33 1011.6
20260507215306 16 330 0.0 3.2 0.00 0.00 0.00 33 1011.7